User: anonymous   Login
Location: Unspecified
(0.0000°N, 0.0000°E)
Time: 11:39:19
(UTC+00:00)
Language:

XW-2A - Orbit

View from above orbital plane
View from above orbital plane
View from above satellite
View from above satellite

Ground track
Ground track

The orbit data is extracted from the following two-line orbital elements,

1 40903U 15049E   18019.20311501  .00001679  00000-0  44272-4 0  9993
2 40903  97.4017  52.4815 0013719 201.4726 158.5947 15.39905595130873
Epoch (UTC): 19 January 2018 04:52:29
Eccentricity: 0.0013719
inclination: 97.4017°
perigee height: 437 km
apogee height: 456 km
right ascension of ascending node: 52.4815°
argument of perigee: 201.4726°
revolutions per day: 15.39905595
mean anomaly at epoch: 158.5947°
orbit number at epoch: 13087

The dashed part of the orbit path shows where the satellite is in the earth's shadow,  

DLR